U vindt ons ook hier:

Het Weer Aktueel

UK Metoffice

European Weather Network

Weather Underground

Citizen Weather Observer Program (CWOP)



Select another period ( hide this area )

Eenheden Periode Custom range Directly to
Metrisch Engels Beide
Dagelijkse Wekelijkse Maandelijkse Jaarlijkse
use both date-selectors for a custom range
previous Dag
With this date

WeatherUnderground graphs for this period ( click here )


Dagelijkse Samenvatting Dinsdag 19 oktober 2021
Tijd Temp. ( °C ) Dew pt. ( °C ) Wind ( km/h ) van Windvlaag ( km/h ) Luchtdruk ( hPa ) Humid.( % ) Rainrate ( cm ) Zonneschijn ( W/m2 )
Hoog14,8 11,9 11,0 ZZO ( 395/622 ) 21,0 1018,3 83 0,51 0
Gemiddeld14,0 11,1 7,3 ZZO #51/85 14,7 1017,0 82 0,60 NAN #0/85
Laag13,6 10,4 5,0   10,0 1015,8 81 -  
Dagelijkse Tabular details for Dinsdag 19 oktober 2021
Tijd Temp. ( °C ) Dew pt. ( °C ) Wind ( km/h ) van Windvlaag ( km/h ) Luchtdruk ( hPa ) Humid.( % ) Rainrate ( cm ) Zonneschijn ( W/m2 )
00:04 13,6 10,6 8,0 ZZO 15,0 1018,2 82 - -
00:09 13,6 10,6 10,0 ZZO 15,0 1018,1 82 - -
00:14 13,6 10,6 8,0 ZZO 15,0 1018,1 82 - -
00:19 13,6 10,6 8,0 ZZO 13,0 1018,2 82 - -
00:24 13,6 10,6 6,0 ZZO 13,0 1018,3 82 - -
00:29 13,6 10,6 5,0 Zuiden 11,0 1018,3 82 - -
00:34 13,6 10,6 5,0 Zuiden 10,0 1018,3 82 - -
00:39 13,6 10,6 6,0 ZZO 13,0 1018,2 82 - -
00:44 13,6 10,6 6,0 ZZO 13,0 1018,1 82 - -
00:49 13,6 10,6 6,0 ZZO 13,0 1018,0 82 - -
00:54 13,6 10,4 6,0 ZZO 13,0 1018,1 81 - -
00:59 13,6 10,4 6,0 ZZO 13,0 1018,1 81 - -
01:04 13,7 10,5 6,0 Zuiden 13,0 1018,1 81 - -
01:09 13,7 10,5 6,0 ZZO 11,0 1018,0 81 - -
01:14 13,7 10,5 6,0 ZZO 11,0 1017,9 81 - -
01:19 13,7 10,7 6,0 ZZO 11,0 1017,8 82 - -
01:24 13,7 10,7 5,0 Zuiden 11,0 1017,8 82 - -
01:29 13,7 10,5 5,0 Zuiden 11,0 1017,9 81 - -
01:34 13,7 10,5 5,0 Zuiden 11,0 1017,8 81 - -
01:39 13,7 10,5 5,0 Zuiden 13,0 1017,7 81 - -
01:44 13,7 10,5 5,0 Zuiden 13,0 1017,8 81 - -
01:49 13,7 10,5 5,0 Zuiden 13,0 1017,9 81 - -
01:54 13,7 10,7 5,0 Zuiden 10,0 1017,8 82 - -
01:59 13,7 10,7 5,0 Zuiden 10,0 1017,9 82 - -
02:04 13,8 10,8 5,0 ZZO 11,0 1017,9 82 - -
02:09 13,8 10,8 5,0 ZZO 11,0 1017,9 82 - -
02:14 13,8 10,8 5,0 ZZO 11,0 1017,8 82 - -
02:19 13,8 10,8 5,0 ZZO 10,0 1017,7 82 - -
02:24 13,8 10,8 5,0 ZZO 11,0 1017,8 82 - -
02:29 13,8 10,8 6,0 ZZO 11,0 1017,7 82 - -
02:34 13,8 10,8 6,0 ZZO 11,0 1017,7 82 - -
02:39 13,8 10,8 6,0 ZZO 11,0 1017,6 82 - -
02:44 13,8 10,8 6,0 ZZO 13,0 1017,5 82 - -
02:49 13,9 10,9 8,0 ZZO 13,0 1017,5 82 - -
02:54 13,9 10,9 8,0 ZZO 13,0 1017,5 82 - -
02:59 13,9 10,7 6,0 ZZO 13,0 1017,5 81 - -
03:04 14,0 10,8 6,0 ZZO 13,0 1017,4 81 - -
03:09 14,0 10,8 8,0 ZZO 13,0 1017,4 81 - -
03:14 14,1 11,1 8,0 ZZO 13,0 1017,3 82 - -
03:19 14,1 11,1 8,0 ZZO 18,0 1017,2 82 0,25 -
03:24 14,0 11,0 10,0 ZZO 18,0 1017,2 82 0,25 -
03:29 14,0 11,0 10,0 ZZO 18,0 1017,0 82 0,25 -
03:34 13,9 10,9 10,0 ZZO 18,0 1017,0 82 0,25 -
03:39 14,0 11,0 10,0 ZZO 18,0 1017,0 82 0,25 -
03:44 14,0 11,0 10,0 ZZO 16,0 1016,8 82 0,25 -
03:49 14,0 11,0 10,0 ZZO 19,0 1016,8 82 0,25 -
03:54 14,1 11,1 10,0 ZZO 19,0 1016,8 82 0,25 -
03:59 14,1 11,1 11,0 ZZO 19,0 1016,8 82 0,25 -
04:04 14,1 11,1 11,0 ZZO 21,0 1016,6 82 0,25 -
04:09 14,1 11,1 11,0 ZZO 21,0 1016,6 82 0,25 -
04:14 14,1 11,1 11,0 ZZO 21,0 1016,5 82 0,51 -
04:19 14,2 11,2 10,0 ZZO 18,0 1016,5 82 0,25 -
04:24 14,2 11,2 8,0 Zuiden 16,0 1016,5 82 0,25 -
04:29 14,2 11,2 8,0 Zuiden 18,0 1016,5 82 0,25 -
04:34 14,2 11,2 8,0 ZZO 18,0 1016,4 82 0,25 -
04:39 14,2 11,3 8,0 ZZO 18,0 1016,3 83 0,25 -
04:44 14,2 11,3 8,0 ZZO 16,0 1016,3 83 0,25 -
04:49 14,2 11,3 8,0 Zuiden 18,0 1016,3 83 0,25 -
04:54 14,2 11,3 10,0 Zuiden 18,0 1016,3 83 0,25 -
04:59 14,3 11,4 10,0 Zuiden 19,0 1016,2 83 0,25 -
05:04 14,3 11,4 8,0 Zuiden 19,0 1016,2 83 0,25 -
05:09 14,3 11,4 8,0 Zuiden 19,0 1016,0 83 0,25 -
05:14 14,3 11,4 8,0 ZZO 16,0 1015,9 83 - -
05:19 14,3 11,4 8,0 ZZO 16,0 1015,8 83 - -
05:24 14,3 11,4 10,0 ZZO 16,0 1015,8 83 - -
05:29 14,3 11,4 8,0 ZZO 15,0 1015,9 83 - -
05:34 14,3 11,4 8,0 ZZO 15,0 1015,8 83 - -
05:39 14,3 11,4 8,0 ZZO 15,0 1015,9 83 - -
05:44 14,4 11,6 8,0 ZZO 15,0 1015,9 83 - -
05:49 14,4 11,6 8,0 Zuiden 15,0 1015,9 83 - -
05:54 14,4 11,6 8,0 Zuiden 15,0 1016,0 83 - -
05:59 14,4 11,6 8,0 Zuiden 15,0 1016,0 83 - -
06:04 14,4 11,6 8,0 Zuiden 16,0 1016,1 83 0,25 -
06:09 14,4 11,6 8,0 Zuiden 16,0 1016,1 83 0,25 -
06:14 14,5 11,7 8,0 Zuiden 16,0 1016,0 83 0,25 -
06:19 14,5 11,7 8,0 Zuiden 16,0 1016,0 83 0,25 -
06:24 14,5 11,7 8,0 Zuiden 16,0 1016,0 83 0,51 -
06:29 14,6 11,7 6,0 Zuiden 16,0 1016,1 83 0,51 -
06:34 14,6 11,7 6,0 Zuiden 16,0 1016,1 83 0,51 -
06:39 14,6 11,7 6,0 Zuiden 15,0 1016,1 83 0,51 -
06:44 14,6 11,7 6,0 Zuiden 15,0 1016,1 83 0,51 -
06:49 14,6 11,7 6,0 Zuiden 11,0 1016,0 83 0,51 -
06:54 14,7 11,8 5,0 Zuiden 16,0 1016,0 83 0,51 -
06:59 14,7 11,8 6,0 Zuiden 16,0 1015,9 83 0,51 -
07:04 14,8 11,9 6,0 Zuiden 16,0 1015,8 83 0,51 -
Dagelijkse Samenvatting Dinsdag 19 oktober 2021
Tijd Temp. ( °C ) Dew pt. ( °C ) Wind ( km/h ) van Windvlaag ( km/h ) Luchtdruk ( hPa ) Humid.( % ) Rainrate ( cm ) Zonneschijn ( W/m2 )
Hoog14,8 11,9 11,0 ZZO ( 395/622 ) 21,0 1018,3 83 0,51 0
Gemiddeld14,0 11,1 7,3 ZZO #51/85 14,7 1017,0 82 0,60 NAN #0/85
Laag13,6 10,4 5,0   10,0 1015,8 81 -  
Dagelijkse Tabular details for Dinsdag 19 oktober 2021
Tijd Temp. ( °C ) Dew pt. ( °C ) Wind ( km/h ) van Windvlaag ( km/h ) Luchtdruk ( hPa ) Humid.( % ) Rainrate ( cm ) Zonneschijn ( W/m2 )
00:04 13,6 10,6 8,0 ZZO 15,0 1018,2 82 - -
00:09 13,6 10,6 10,0 ZZO 15,0 1018,1 82 - -
00:14 13,6 10,6 8,0 ZZO 15,0 1018,1 82 - -
00:19 13,6 10,6 8,0 ZZO 13,0 1018,2 82 - -
00:24 13,6 10,6 6,0 ZZO 13,0 1018,3 82 - -
00:29 13,6 10,6 5,0 Zuiden 11,0 1018,3 82 - -
00:34 13,6 10,6 5,0 Zuiden 10,0 1018,3 82 - -
00:39 13,6 10,6 6,0 ZZO 13,0 1018,2 82 - -
00:44 13,6 10,6 6,0 ZZO 13,0 1018,1 82 - -
00:49 13,6 10,6 6,0 ZZO 13,0 1018,0 82 - -
00:54 13,6 10,4 6,0 ZZO 13,0 1018,1 81 - -
00:59 13,6 10,4 6,0 ZZO 13,0 1018,1 81 - -
01:04 13,7 10,5 6,0 Zuiden 13,0 1018,1 81 - -
01:09 13,7 10,5 6,0 ZZO 11,0 1018,0 81 - -
01:14 13,7 10,5 6,0 ZZO 11,0 1017,9 81 - -
01:19 13,7 10,7 6,0 ZZO 11,0 1017,8 82 - -
01:24 13,7 10,7 5,0 Zuiden 11,0 1017,8 82 - -
01:29 13,7 10,5 5,0 Zuiden 11,0 1017,9 81 - -
01:34 13,7 10,5 5,0 Zuiden 11,0 1017,8 81 - -
01:39 13,7 10,5 5,0 Zuiden 13,0 1017,7 81 - -
01:44 13,7 10,5 5,0 Zuiden 13,0 1017,8 81 - -
01:49 13,7 10,5 5,0 Zuiden 13,0 1017,9 81 - -
01:54 13,7 10,7 5,0 Zuiden 10,0 1017,8 82 - -
01:59 13,7 10,7 5,0 Zuiden 10,0 1017,9 82 - -
02:04 13,8 10,8 5,0 ZZO 11,0 1017,9 82 - -
02:09 13,8 10,8 5,0 ZZO 11,0 1017,9 82 - -
02:14 13,8 10,8 5,0 ZZO 11,0 1017,8 82 - -
02:19 13,8 10,8 5,0 ZZO 10,0 1017,7 82 - -
02:24 13,8 10,8 5,0 ZZO 11,0 1017,8 82 - -
02:29 13,8 10,8 6,0 ZZO 11,0 1017,7 82 - -
02:34 13,8 10,8 6,0 ZZO 11,0 1017,7 82 - -
02:39 13,8 10,8 6,0 ZZO 11,0 1017,6 82 - -
02:44 13,8 10,8 6,0 ZZO 13,0 1017,5 82 - -
02:49 13,9 10,9 8,0 ZZO 13,0 1017,5 82 - -
02:54 13,9 10,9 8,0 ZZO 13,0 1017,5 82 - -
02:59 13,9 10,7 6,0 ZZO 13,0 1017,5 81 - -
03:04 14,0 10,8 6,0 ZZO 13,0 1017,4 81 - -
03:09 14,0 10,8 8,0 ZZO 13,0 1017,4 81 - -
03:14 14,1 11,1 8,0 ZZO 13,0 1017,3 82 - -
03:19 14,1 11,1 8,0 ZZO 18,0 1017,2 82 0,25 -
03:24 14,0 11,0 10,0 ZZO 18,0 1017,2 82 0,25 -
03:29 14,0 11,0 10,0 ZZO 18,0 1017,0 82 0,25 -
03:34 13,9 10,9 10,0 ZZO 18,0 1017,0 82 0,25 -
03:39 14,0 11,0 10,0 ZZO 18,0 1017,0 82 0,25 -
03:44 14,0 11,0 10,0 ZZO 16,0 1016,8 82 0,25 -
03:49 14,0 11,0 10,0 ZZO 19,0 1016,8 82 0,25 -
03:54 14,1 11,1 10,0 ZZO 19,0 1016,8 82 0,25 -
03:59 14,1 11,1 11,0 ZZO 19,0 1016,8 82 0,25 -
04:04 14,1 11,1 11,0 ZZO 21,0 1016,6 82 0,25 -
04:09 14,1 11,1 11,0 ZZO 21,0 1016,6 82 0,25 -
04:14 14,1 11,1 11,0 ZZO 21,0 1016,5 82 0,51 -
04:19 14,2 11,2 10,0 ZZO 18,0 1016,5 82 0,25 -
04:24 14,2 11,2 8,0 Zuiden 16,0 1016,5 82 0,25 -
04:29 14,2 11,2 8,0 Zuiden 18,0 1016,5 82 0,25 -
04:34 14,2 11,2 8,0 ZZO 18,0 1016,4 82 0,25 -
04:39 14,2 11,3 8,0 ZZO 18,0 1016,3 83 0,25 -
04:44 14,2 11,3 8,0 ZZO 16,0 1016,3 83 0,25 -
04:49 14,2 11,3 8,0 Zuiden 18,0 1016,3 83 0,25 -
04:54 14,2 11,3 10,0 Zuiden 18,0 1016,3 83 0,25 -
04:59 14,3 11,4 10,0 Zuiden 19,0 1016,2 83 0,25 -
05:04 14,3 11,4 8,0 Zuiden 19,0 1016,2 83 0,25 -
05:09 14,3 11,4 8,0 Zuiden 19,0 1016,0 83 0,25 -
05:14 14,3 11,4 8,0 ZZO 16,0 1015,9 83 - -
05:19 14,3 11,4 8,0 ZZO 16,0 1015,8 83 - -
05:24 14,3 11,4 10,0 ZZO 16,0 1015,8 83 - -
05:29 14,3 11,4 8,0 ZZO 15,0 1015,9 83 - -
05:34 14,3 11,4 8,0 ZZO 15,0 1015,8 83 - -
05:39 14,3 11,4 8,0 ZZO 15,0 1015,9 83 - -
05:44 14,4 11,6 8,0 ZZO 15,0 1015,9 83 - -
05:49 14,4 11,6 8,0 Zuiden 15,0 1015,9 83 - -
05:54 14,4 11,6 8,0 Zuiden 15,0 1016,0 83 - -
05:59 14,4 11,6 8,0 Zuiden 15,0 1016,0 83 - -
06:04 14,4 11,6 8,0 Zuiden 16,0 1016,1 83 0,25 -
06:09 14,4 11,6 8,0 Zuiden 16,0 1016,1 83 0,25 -
06:14 14,5 11,7 8,0 Zuiden 16,0 1016,0 83 0,25 -
06:19 14,5 11,7 8,0 Zuiden 16,0 1016,0 83 0,25 -
06:24 14,5 11,7 8,0 Zuiden 16,0 1016,0 83 0,51 -
06:29 14,6 11,7 6,0 Zuiden 16,0 1016,1 83 0,51 -
06:34 14,6 11,7 6,0 Zuiden 16,0 1016,1 83 0,51 -
06:39 14,6 11,7 6,0 Zuiden 15,0 1016,1 83 0,51 -
06:44 14,6 11,7 6,0 Zuiden 15,0 1016,1 83 0,51 -
06:49 14,6 11,7 6,0 Zuiden 11,0 1016,0 83 0,51 -
06:54 14,7 11,8 5,0 Zuiden 16,0 1016,0 83 0,51 -
06:59 14,7 11,8 6,0 Zuiden 16,0 1015,9 83 0,51 -
07:04 14,8 11,9 6,0 Zuiden 16,0 1015,8 83 0,51 -

Download your copy of this data-set  here

Our weather-data as stored at Weather Underground. Script ontwikkeld door Jim McMurry. Aangepast voor de template door Leuven-Template.eu

Apparatuur in gebruik:

Weerstation
Davis VP2

Weerprogramma
Cumulus

Weercomputer
Gigabyte Brix

Webleverancier
GetHost

Davis VP2

Cumulus

Gigabyte Brix

GetHost